SCP
0 0 0 0 0 0 0 0 0 0 0 0 0 0 0 0 0 0 0 0 0 0 0 0 0 0 0
0 0 0 0 0 0 0 0 0 0 0 0 0 0 0 0 0 0 0 0 0 0 0 0 0 0 0
0 0 0 0 0 0 0 0 0 0 0 0 0 0 0 0 0 0 0 0 0 0 0 0 0 0 0
0 0 0 0 0 0 0 0 0 0 0 0 0 0 0 0 0 0 0 0 0 0 0 0 0 0 0
0 0 0 0 0 0 0 0 0 0 0 0 0 0 0 0 0 0 0 0 0 0 0 0 0 0 0
0 0 0 0 0 0 0 0 0 0 0 0 0 0 0 0 0 0 0 0 0 0 0 0 0 0 0
0 0 0 0 0 0 0 0 0 0 0 0 0 0 0 0 0 0 0 0 0 0 0 0 0 0 0
0 0 0 0 0 0 0 0 0 0 0 0 0 0 0 0 0 0 0 0 0 0 0 0 0 0 0
0 0 0 0 0 0 0 0 0 0 0 0 0 0 0 0 0 0 0 0 0 0 0 0 0 0 0
0 0 0 0 0 0 0 0 0 0 0 0 0 0 0 0 0 0 0 0 0 0 0 0 0 0 0
0 0 0 0 0 0 0 0 0 0 0 0 0 0 0 0 0 0 0 0 0 0 0 0 0 0 0
0 0 0 0 0 0 0 0 0 0 0 0 0 0 0 0 0 0 0 0 0 0 0 0 0 0 0
0 0 0 0 0 0 0 0 0 0 0 0 0 0 0 0 0 0 0 0 0 0 0 0 0 0 0
0 0 0 0 0 0 0 0 0 0 0 0 0 0 0 0 0 0 0 0 0 0 0 0 0 0 0
0 0 0 0 0 0 0 0 0 0 0 0 0 0 0 0 0 0 0 0 0 0 0 0 0 0 0
0 0 0 0 0 0 0 0 0 0 0 0 0 0 0 0 0 0 0 0 0 0 0 0 0 0 0
0 0 0 0 0 0 0 0 0 0 0 0 0 0 0 0 0 0 0 0 0 0 0 0 0 0 0
Wind_Speed_500mb
39 36 33 30 31 35 36 37 35 36 40 40 38 36 37 39 44 45 46 49 49 47 41 44 46 46 47
34 34 32 35 34 31 33 33 35 38 39 40 39 39 39 43 45 47 48 50 49 48 51 49 45 46 50
25 29 34 32 27 26 27 30 34 37 39 40 38 38 42 45 49 51 51 50 54 54 51 48 46 50 53
25 27 26 27 25 24 28 28 29 31 32 34 38 41 44 47 49 51 52 55 55 55 45 45 50 54 54
20 20 21 22 22 24 27 27 29 32 35 37 42 43 46 50 52 52 55 53 50 39 43 51 52 54 56
20 20 21 21 23 25 29 33 38 38 52 43 50 47 49 49 53 55 50 41 35 47 50 49 52 56 57
18 19 18 19 24 28 33 38 40 45 55 62 54 53 51 55 52 42 34 37 49 48 49 51 55 57 56
17 16 18 22 27 34 37 41 44 45 50 64 55 61 63 56 40 33 41 46 49 49 54 56 59 60 63
16 16 18 26 31 32 36 42 50 49 51 50 62 70 66 58 41 47 48 52 50 54 55 57 57 62 69
17 18 20 26 27 32 36 40 45 49 38 53 54 56 64 50 63 56 61 55 58 58 55 51 55 63 67
18 18 18 23 28 31 34 34 36 41 38 40 51 50 46 70 74 73 68 65 64 60 50 54 55 56 63
17 17 22 26 28 29 30 29 35 40 40 37 46 42 49 66 76 80 75 69 68 55 63 58 59 52 48
18 18 23 27 29 27 28 33 35 35 32 31 36 40 45 56 69 77 78 79 63 64 62 64 62 58 60
17 19 23 24 26 31 35 39 42 35 28 28 31 39 52 54 60 69 62 71 69 65 66 65 61 56 55
18 20 23 25 27 32 35 38 41 42 40 31 32 39 43 49 61 62 68 72 65 70 68 69 66 59 55
18 20 23 26 28 30 32 35 39 40 42 41 43 50 52 50 50 66 69 67 69 66 62 64 71 61 57
17 20 22 25 29 29 31 35 38 39 38 41 44 42 56 71 74 57 69 70 68 64 61 60 67 68 64
Wind_Direction_500mb
225 229 236 254 275 292 299 304 310 312 316 319 322 320 317 317 316 314 314 316 317 318 317 317 318 317 316
218 225 246 263 276 285 294 300 304 307 311 317 318 315 315 315 314 314 316 315 315 312 312 315 315 314 314
226 242 253 262 270 282 287 295 305 305 309 311 314 316 317 317 314 316 317 314 315 316 313 314 312 311 312
250 244 253 264 272 280 285 296 303 305 309 313 314 317 314 312 313 316 315 313 312 312 313 308 305 309 309
252 266 267 273 286 294 301 309 309 309 309 313 311 316 314 315 314 315 315 314 311 312 305 307 309 307 310
258 256 263 279 292 298 306 316 322 320 316 318 318 319 316 315 316 316 314 313 313 309 311 309 310 311 311
253 264 276 284 292 299 311 314 318 322 317 315 323 321 318 319 317 318 320 320 317 315 313 313 313 314 312
252 262 276 284 295 305 310 314 317 317 313 314 325 321 323 325 326 327 330 325 320 319 320 317 315 314 313
257 268 281 288 297 301 307 312 314 319 320 320 327 322 325 330 333 333 333 330 326 324 321 318 315 314 313
264 278 285 289 296 306 310 313 315 320 329 320 325 332 329 327 322 328 332 331 329 327 321 318 316 314 314
256 269 284 296 303 309 312 313 312 316 327 321 319 323 316 315 319 325 330 332 330 329 323 321 319 320 317
271 293 302 304 307 311 310 318 320 317 320 313 306 314 312 313 316 321 326 328 331 327 325 321 319 316 318
280 304 310 307 311 313 315 316 314 317 316 314 309 310 309 309 311 315 323 325 327 327 324 320 322 324 325
300 309 307 309 306 315 316 313 313 316 318 320 313 309 307 308 309 312 321 323 326 328 326 321 323 327 327
306 306 300 305 314 314 315 315 317 323 325 320 312 310 309 310 309 312 319 325 327 328 323 318 318 324 328
291 289 302 313 318 322 322 320 324 329 328 328 327 322 318 313 320 322 321 324 325 322 320 316 314 322 324
286 305 313 318 324 326 325 326 328 329 329 332 332 328 326 323 323 326 321 323 323 322 322 319 314 319 323
Wind_Speed_850mb
39 36 33 30 31 35 36 37 35 36 40 40 38 36 37 39 44 45 46 49 49 47 41 44 46 46 47
34 34 32 35 34 31 33 33 35 38 39 40 39 39 39 43 45 47 48 50 49 48 51 49 45 46 50
25 29 34 32 27 26 27 30 34 37 39 40 38 38 42 45 49 51 51 50 54 54 51 48 46 50 53
25 27 26 27 25 24 28 28 29 31 32 34 38 41 44 47 49 51 52 55 55 55 45 45 50 54 54
20 20 21 22 22 24 27 27 29 32 35 37 42 43 46 50 52 52 55 53 50 39 43 51 52 54 56
20 20 21 21 23 25 29 33 38 38 52 43 50 47 49 49 53 55 50 41 35 47 50 49 52 56 57
18 19 18 19 24 28 33 38 40 45 55 62 54 53 51 55 52 42 34 37 49 48 49 51 55 57 56
17 16 18 22 27 34 37 41 44 45 50 64 55 61 63 56 40 33 41 46 49 49 54 56 59 60 63
16 16 18 26 31 32 36 42 50 49 51 50 62 70 66 58 41 47 48 52 50 54 55 57 57 62 69
17 18 20 26 27 32 36 40 45 49 38 53 54 56 64 50 63 56 61 55 58 58 55 51 55 63 67
18 18 18 23 28 31 34 34 36 41 38 40 51 50 46 70 74 73 68 65 64 60 50 54 55 56 63
17 17 22 26 28 29 30 29 35 40 40 37 46 42 49 66 76 80 75 69 68 55 63 58 59 52 48
18 18 23 27 29 27 28 33 35 35 32 31 36 40 45 56 69 77 78 79 63 64 62 64 62 58 60
17 19 23 24 26 31 35 39 42 35 28 28 31 39 52 54 60 69 62 71 69 65 66 65 61 56 55
18 20 23 25 27 32 35 38 41 42 40 31 32 39 43 49 61 62 68 72 65 70 68 69 66 59 55
18 20 23 26 28 30 32 35 39 40 42 41 43 50 52 50 50 66 69 67 69 66 62 64 71 61 57
17 20 22 25 29 29 31 35 38 39 38 41 44 42 56 71 74 57 69 70 68 64 61 60 67 68 64
Wind_Direction_850mb
225 229 236 254 275 292 299 304 310 312 316 319 322 320 317 317 316 314 314 316 317 318 317 317 318 317 316
218 225 246 263 276 285 294 300 304 307 311 317 318 315 315 315 314 314 316 315 315 312 312 315 315 314 314
226 242 253 262 270 282 287 295 305 305 309 311 314 316 317 317 314 316 317 314 315 316 313 314 312 311 312
250 244 253 264 272 280 285 296 303 305 309 313 314 317 314 312 313 316 315 313 312 312 313 308 305 309 309
252 266 267 273 286 294 301 309 309 309 309 313 311 316 314 315 314 315 315 314 311 312 305 307 309 307 310
258 256 263 279 292 298 306 316 322 320 316 318 318 319 316 315 316 316 314 313 313 309 311 309 310 311 311
253 264 276 284 292 299 311 314 318 322 317 315 323 321 318 319 317 318 320 320 317 315 313 313 313 314 312
252 262 276 284 295 305 310 314 317 317 313 314 325 321 323 325 326 327 330 325 320 319 320 317 315 314 313
257 268 281 288 297 301 307 312 314 319 320 320 327 322 325 330 333 333 333 330 326 324 321 318 315 314 313
264 278 285 289 296 306 310 313 315 320 329 320 325 332 329 327 322 328 332 331 329 327 321 318 316 314 314
256 269 284 296 303 309 312 313 312 316 327 321 319 323 316 315 319 325 330 332 330 329 323 321 319 320 317
271 293 302 304 307 311 310 318 320 317 320 313 306 314 312 313 316 321 326 328 331 327 325 321 319 316 318
280 304 310 307 311 313 315 316 314 317 316 314 309 310 309 309 311 315 323 325 327 327 324 320 322 324 325
300 309 307 309 306 315 316 313 313 316 318 320 313 309 307 308 309 312 321 323 326 328 326 321 323 327 327
306 306 300 305 314 314 315 315 317 323 325 320 312 310 309 310 309 312 319 325 327 328 323 318 318 324 328
291 289 302 313 318 322 322 320 324 329 328 328 327 322 318 313 320 322 321 324 325 322 320 316 314 322 324
286 305 313 318 324 326 325 326 328 329 329 332 332 328 326 323 323 326 321 323 323 322 322 319 314 319 323